Regional Weather Roundup
Issued by NWS

Home | Current Version | Previous Version | Graphics & Text | Print | Product List | Glossary On
Versions: 1 2 3 4 5 6 7 8 9 10 11 12 13 14 15 16 17 18 19 20 21 22 23 24 25 26 27 28 29 30 31 32 33 34 35 36 37 38 39 40 41 42 43 44 45 46 47 48 49 50
148
ASUS43 KOAX 260602
RWRNE

WEATHER ROUNDUP FOR NEBRASKA
NATIONAL WEATHER SERVICE OMAHA NE
100 AM CDT WED APR 26 2017

NOTES: SATELLITE DATA IS BEING USED TO AUGMENT CLOUD COVER ABOVE
       12000 FEET.
       "FAIR" INDICATES FEW OR NO CLOUDS BELOW 12,000 FEET WITH NO
       SIGNIFICANT WEATHER AND/OR OBSTRUCTIONS TO VISIBILITY.

  * THESE STATIONS DO NOT REPORT WEATHER SUCH AS RAIN...SNOW OR FOG.

NEZ001>004-019>022-054>056-260700-
NEBRASKA PANHANDLE

CITY           SKY/WX    TMP DP  RH WIND       PRES   REMARKS
SCOTTSBLUFF    CLOUDY    32  25  75 W5        29.87S WCI  27
6HR MIN TEMP:  31; 6HR MAX TEMP:  39;

ALLIANCE       CLOUDY    28  23  81 NW14      29.85F WCI  17
6HR MIN TEMP:  28; 6HR MAX TEMP:  34; 6HR PCP: TRACE;

CHADRON        CLOUDY    28  26  92 N10       29.90F WCI  19
6HR MIN TEMP:  28; 6HR MAX TEMP:  31; 6HR PCP: TRACE;

KIMBALL        CLOUDY    31  31 100 N9        29.85S WCI  22
SIDNEY         CLOUDY    31  28  89 N16       29.84F WCI  20
6HR MIN TEMP:  30; 6HR MAX TEMP:  41; 6HR PCP: TRACE;

$$

NEZ057>060-069>072-079>082-260700-
SOUTHWEST NEBRASKA

CITY           SKY/WX    TMP DP  RH WIND       PRES   REMARKS
NORTH PLATTE   CLOUDY    35  28  75 NW16      29.80S WCI  25
6HR MIN TEMP:  35; 6HR MAX TEMP:  42;

IMPERIAL       CLOUDY    35  28  75 N17       29.80F WCI  25
6HR MIN TEMP:  35; 6HR MAX TEMP:  45;

LEXINGTON      CLOUDY    35  31  83 N16       29.75S WCI  25
MCCOOK         CLOUDY    38  30  73 N17       29.77R WCI  28
6HR MIN TEMP:  38; 6HR MAX TEMP:  48;

OGALLALA       CLOUDY    35  28  75 NW15G22   29.83S WCI  25
$$

NEZ005>010-023>029-035>040-094-260700-
NORTH CENTRAL NEBRASKA

CITY           SKY/WX    TMP DP  RH WIND       PRES   REMARKS
VALENTINE      CLOUDY    31  25  78 NW17G25   29.83S WCI  19
6HR MIN TEMP:  31; 6HR MAX TEMP:  36; 6HR PCP: TRACE;

AINSWORTH      CLOUDY    31  30  93 NW16      29.80S WCI  20
BROKEN BOW     CLOUDY    34  29  82 N25G31    29.75S WCI  21
6HR MIN TEMP:  34; 6HR MAX TEMP:  38;

O`NEILL        CLOUDY    34  31  88 N24       29.75S WCI  22
ORD            CLOUDY    35  31  85 N23G30    29.73S WCI  23
6HR MIN TEMP:  35; 6HR MAX TEMP:  39;

THEDFORD       CLOUDY    32  27  82 NW18G24   29.81S WCI  20
$$

NEZ041-046>049-061>064-073>077-083>087-260700-
SOUTH CENTRAL NEBRASKA

CITY           SKY/WX    TMP DP  RH WIND       PRES   REMARKS
GRAND ISLAND   CLOUDY    37  34  89 N24       29.70F WCI  26
6HR MIN TEMP:  37; 6HR MAX TEMP:  40;

AURORA         CLOUDY    37  34  89 N23G31    29.68F WCI  26
HASTINGS       CLOUDY    38  33  82 N20G31    29.69F WCI  28
6HR MIN TEMP:  38; 6HR MAX TEMP:  41;

HEBRON         CLOUDY    40  33  76 N21       29.64F WCI  30
HOLDREGE       CLOUDY    36  32  85 N17G28    29.72S WCI  25
KEARNEY *      CLOUDY    37  30  75 N21G28    29.72S WCI  27
YORK           CLOUDY    37  34  87 N21G28    29.66F WCI  27
$$

NEZ011>018-030>034-042>045-260700-
NORTHEAST NEBRASKA

CITY           SKY/WX    TMP DP  RH WIND       PRES   REMARKS
NORFOLK        CLOUDY    34  31  88 NW24G31   29.68S WCI  21
6HR MIN TEMP:  34; 6HR MAX TEMP:  38;

ALBION         CLOUDY    36  32  86 N21G26    29.70R WCI  25
FREMONT        CLOUDY    38  37  95 NW17G24   29.64F WCI  29
TEKAMAH        CLOUDY    40  36  86 NW25      29.62S WCI  29
6HR MIN TEMP:  40; 6HR MAX TEMP:  44; 6HR PCP:  0.07;

WAYNE          CLOUDY    35  35  99 NW15G26   29.66S WCI  25
$$

NEZ050>053-065>068-078-088>093-260700-
SOUTHEAST NEBRASKA

CITY           SKY/WX    TMP DP  RH WIND       PRES   REMARKS
LINCOLN        CLOUDY    40  35  83 N21       29.62F WCI  30
6HR MIN TEMP:  40; 6HR MAX TEMP:  45; 6HR PCP:  0.02;

OMAHA EPPLEY   CLOUDY    42  37  82 N18       29.57F
6HR MIN TEMP:  42; 6HR MAX TEMP:  45; 6HR PCP:  0.06;

BEATRICE       CLOUDY    41  38  87 N17       29.63R
FALLS CITY     CLOUDY    45  41  86 N16G22    29.56R
6HR MIN TEMP:  45; 6HR MAX TEMP:  51; 6HR PCP: TRACE;

NEBRASKA CITY  CLOUDY    43  37  81 N16G25    29.59S
PLATTSMOUTH    CLOUDY    42  37  83 NW10G23   29.59S
$$

NEZ044-045-051>053-067-260700-
OMAHA AREA

CITY           SKY/WX    TMP DP  RH WIND       PRES   REMARKS
OMAHA EPPLEY   CLOUDY    42  37  82 N18       29.57F
6HR MIN TEMP:  42; 6HR MAX TEMP:  45; 6HR PCP:  0.06;

FREMONT        CLOUDY    38  37  95 NW17G24   29.64F WCI  29
MILLARD        CLOUDY    43  39  86 NW16G25   29.59F
OFFUTT AFB     CLOUDY    42  38  85 NW12      29.58S
PLATTSMOUTH    CLOUDY    42  37  83 NW10G23   29.59S
WAHOO          CLOUDY    39  35  87 NW17      29.62F WCI  29
$$




USA.gov is the U.S. government's official web portal to all federal, state and local government web resources and services.